Regional Weather Roundup
Issued by NWS

Home | Current Version | Previous Version | Text Only | Print | Product List | Glossary Off
Versions: 1 2 3 4 5 6 7 8 9 10 11 12 13 14 15 16 17 18 19 20 21 22 23 24 25 26 27 28 29 30 31 32 33 34 35 36 37 38 39 40 41 42 43 44 45 46 47 48 49 50

000
ASUS45 KABQ 031401
RWRNM
NEW MEXICO REGIONAL WEATHER ROUNDUP
NATIONAL WEATHER SERVICE ALBUQUERQUE NM
800 AM MDT FRI JUL 03 2015

NOTE: "FAIR" MEANS FEW OR NO CLOUDS BELOW 12,000 FEET AGL WITH NO
       SIGNIFICANT WEATHER OR OBSTRUCTIONS TO VISION.

      THIS PRODUCT IS RELEASED AS TWO VERSIONS.  ONE VERSION NEAR
      THE TOP OF THE HOUR CONTAINING PRELIMINARY DATA FROM ALBUQUERQUE
      AND OTHER STATIONS.  A FINAL VERSION WITH ADDITIONAL DATA IS
      ISSUED ABOUT 10 MINUTES AFTER THE HOUR.

NMZ501-503-504-510>518-031500-
NORTHWEST PLATEAU/NORTHCENTRAL MOUNTAINS

CITY           SKY/WX    TMP DP  RH WIND       PRES   REMARKS
FARMINGTON     SUNNY     66  54  65 E6        30.19R
SANTA FE       MOSUNNY   62  56  80 N10       30.26S
TAOS           PTSUNNY   57  46  67 N3        30.33S

$$
NMZ402-403-502-505>509-031500-
WESTCENTRAL MOUNTAINS/SOUTHWEST MOUNTAINS

CITY           SKY/WX    TMP DP  RH WIND       PRES   REMARKS
GALLUP         PTSUNNY   67  57  70 E6        30.26R
GRANTS         MOSUNNY   65  59  79 S10       30.29R
SILVER CITY      N/A     68  63  83 NW13      30.21S

$$
NMZ407-409-411-412-031500-
SOUTHERN DESERTS

CITY           SKY/WX    TMP DP  RH WIND       PRES   REMARKS
LORDSBURG      FAIR      68  63  83 N10       30.14S
DEMING         CLOUDY    72  62  71 SW3       30.12S
HOLLOMAN AFB   PTSUNNY   71  65  82 NW5       30.09R
ALAMOGORDO     PTSUNNY   72  63  73 N6        30.12R
T OR C         PTSUNNY   72  60  66 NE3       30.15R

$$
NMZ519>523-031500-
CENTRAL VALLEYS/CENTRAL HIGHLANDS

CITY           SKY/WX    TMP DP  RH WIND       PRES   REMARKS
ALBUQUERQUE    PTSUNNY   72  54  53 E9        30.21R
DOUBLE EAGLE   PTSUNNY   66  57  72 N6        30.24R
CLINES CORNERS PTSUNNY   64  52  64 NE7       30.29S
BELEN          FAIR      69  60  72 W6        30.20R
SOCORRO        NOT AVBL

$$
NMZ524>526-539-540-031500-
SOUTHCENTRAL MOUNTAINS

CITY           SKY/WX    TMP DP  RH WIND       PRES   REMARKS
RUIDOSO        NOT AVBL

$$
NMZ527>531-031500-
NORTHEAST HIGHLANDS/NORTHEAST PLAINS

CITY           SKY/WX    TMP DP  RH WIND       PRES   REMARKS
LAS VEGAS      PTSUNNY   60  56  86 N7        30.30S
RATON          MOSUNNY   65  59  81 NE3       30.27S
CLAYTON        MOSUNNY   75  62  64 W7        30.19R

$$
NMZ532>537-031500-
EASTCENTRAL PLAINS

CITY           SKY/WX    TMP DP  RH WIND       PRES   REMARKS
TUCUMCARI      CLOUDY    68  65  90 N7        30.12R
CANNON AFB     CLOUDY    65  64  96 CALM      30.16S
CLOVIS AIRPORT CLOUDY    64  63  94 SW7         N/A

$$
NMZ028-029-538-031500-
SOUTHEAST PLAINS

CITY           SKY/WX    TMP DP  RH WIND       PRES   REMARKS
ROSWELL        CLOUDY    74  62  66 E5        30.09R
ARTESIA        CLOUDY    75  64  69 S5        30.09S
CARLSBAD       PTSUNNY   77  62  59 VRB3      30.05S
HOBBS          MOSUNNY   73  63  68 CALM      30.10S


$$



USA.gov is the U.S. government's official web portal to all federal, state and local government web resources and services.